MEXSAT 3

Last updated on Fri Oct 24 2025 00:02:49 GMT+0000 (Coordinated Universal Time)

1 39035U 12075B 25296.52585321 -.00000014 00000+0 00000+0 0 9994 2 39035 0.0124 222.5661 0001475 341.8890 262.2770 1.00272658 4688
UTC large
Height (km)
Speed (km/s)
/
Latitude / Longitude
Inclination (degrees)
Orbital Period (minutes)
Azimuth
Elevation
Range (km)
Doppler Factor

Next 0 passes for location: London (51.5072 / 0.1276)

Sorry there are no passes over London.